Temperature
13 13 13 13 13 13 13 13 12 12 12 11 11 11 11 11 11 11 11 11 11 10 10 10 10 10 10 10 10 10 10 10 10 10 10 10 9 9 9 9 8 8 8
13 13 13 13 13 13 13 12 12 12 11 11 11 11 11 11 11 11 11 11 10 10 10 10 10 10 10 10 10 10 10 9 10 10 9 9 9 9 9 8 8 8 8
13 13 13 13 13 12 12 12 12 11 11 11 11 10 10 10 10 11 10 10 10 10 10 10 10 9 9 9 9 9 9 9 9 9 9 9 9 9 8 8 8 8 7
13 13 13 13 12 12 12 12 11 11 11 10 10 10 10 10 10 10 10 10 10 10 10 10 10 9 9 9 9 9 9 9 9 9 9 9 9 8 8 8 7 7 7
12 12 12 12 12 12 12 11 11 11 10 10 10 10 10 10 10 10 10 10 10 10 10 10 10 9 9 9 9 9 9 9 9 9 9 8 8 8 8 7 7 7 6
12 12 12 12 12 12 11 11 11 11 10 10 10 10 10 10 10 10 10 10 10 10 10 10 9 9 9 9 9 9 9 9 9 8 8 8 8 7 7 7 6 6 6
11 12 12 12 12 12 11 11 11 10 10 10 10 9 9 9 9 9 9 10 10 10 9 9 9 9 9 9 9 9 9 9 8 8 8 8 7 7 7 6 6 6 6
11 11 12 12 12 11 11 11 10 10 10 10 9 9 9 9 9 9 9 9 9 9 9 9 9 9 9 9 9 9 9 8 8 8 8 7 7 7 6 6 6 6 5
11 11 11 12 11 11 11 11 10 10 10 9 10 10 9 9 9 9 9 9 9 9 9 9 9 9 9 9 9 9 9 8 8 8 8 7 7 7 6 6 6 5 5
11 11 11 11 11 11 11 11 11 11 10 10 9 10 10 10 9 9 9 9 9 9 9 9 9 9 9 9 9 9 9 8 8 8 7 7 7 6 6 5 5 5 5
10 10 11 11 11 11 11 11 10 10 10 10 10 10 10 10 10 10 9 9 9 9 9 9 9 9 9 9 9 9 8 8 8 8 7 7 7 6 6 5 5 5 4
10 10 10 11 11 11 11 11 10 10 10 10 10 10 10 11 11 11 10 10 9 9 9 9 9 9 9 9 9 8 8 8 8 7 7 7 7 6 5 5 5 4 4
9 10 10 10 10 11 11 10 10 10 10 10 10 10 10 11 11 11 11 10 9 9 9 9 9 9 9 9 9 8 8 8 8 7 7 7 6 6 5 5 4 4 3
9 10 10 10 10 10 10 10 10 10 10 10 10 10 10 10 11 11 11 11 9 9 9 9 9 9 9 9 8 8 8 8 7 7 7 6 6 5 5 4 4 4 3
9 9 10 10 10 10 10 10 10 10 10 10 10 10 10 10 10 10 11 11 10 9 9 9 9 9 9 8 8 8 8 7 7 7 6 6 5 5 4 4 3 3 3
9 9 9 10 10 10 10 10 10 10 10 10 10 10 10 10 10 10 10 10 10 10 10 9 9 9 9 8 8 8 8 7 7 6 6 5 5 4 4 3 3 2 2
9 9 9 10 10 10 10 9 10 10 9 9 9 9 10 10 10 10 10 10 10 10 10 9 9 9 8 8 8 8 7 7 6 6 6 5 5 4 3 3 2 2 1
9 9 9 9 10 9 10 9 10 10 9 9 9 9 10 10 10 10 10 10 10 10 10 9 9 9 8 8 8 7 7 6 6 6 5 5 4 3 3 2 2 1 1
9 9 9 9 9 9 10 10 10 9 10 10 10 9 10 10 10 10 10 9 9 9 9 9 9 8 8 8 7 7 6 6 6 5 5 4 4 3 2 2 1 1 0
8 9 9 9 9 9 9 10 9 9 9 9 9 9 10 10 10 10 9 9 9 9 9 9 8 8 7 7 7 6 6 6 5 5 4 4 3 3 2 2 1 0 -0
8 8 8 9 9 9 9 9 9 9 9 9 9 9 10 10 10 10 9 9 9 9 9 8 8 8 7 7 7 6 6 5 5 4 4 3 3 2 2 1 0 -0 -1
8 8 8 9 9 9 9 9 9 9 9 9 9 9 9 9 9 9 9 9 9 9 9 8 8 8 7 7 6 6 5 5 4 4 3 3 2 2 1 1 -0 -1 -1
7 8 8 8 9 9 9 9 9 9 9 9 9 9 9 9 9 9 9 9 9 9 8 8 8 8 7 7 6 5 5 4 4 3 3 3 2 2 1 0 -1 -1 -2
7 7 8 8 9 9 9 9 9 9 9 9 9 9 9 9 9 9 9 8 8 8 8 8 7 7 7 6 5 5 4 4 3 3 2 2 2 1 1 -0 -1 -2 -2
7 7 7 8 8 9 9 9 9 9 9 9 9 9 9 9 9 9 9 8 8 8 7 7 7 6 6 5 5 4 4 3 3 3 2 1 1 1 0 -0 -1 -2 -2
6 7 7 7 8 8 8 9 9 9 8 8 8 9 9 9 9 9 8 8 8 8 7 6 6 6 5 5 4 4 3 3 2 2 1 1 0 -1 -1 -1 -1 -2 -3
Wind_Speed
8 9 8 10 11 12 11 10 10 9 8 9 10 11 9 10 11 11 11 13 13 13 13 13 12 10 10 9 8 7 6 6 5 5 4 5 5 5 5 6 7 8 8
9 9 9 10 11 12 12 11 11 10 8 8 8 9 10 11 11 12 11 12 13 13 13 12 11 10 9 8 7 6 5 4 3 3 3 3 4 4 5 6 7 8 9
11 10 9 10 11 13 13 10 10 9 8 8 8 8 9 9 10 11 12 11 11 12 12 11 10 10 9 8 7 6 4 3 2 2 1 2 3 4 5 6 7 8 9
13 11 10 10 13 13 11 10 10 9 9 8 8 7 7 8 9 11 11 11 11 10 11 11 10 10 9 8 7 5 4 3 2 1 1 2 3 5 6 7 8 9 10
14 12 11 10 13 12 10 11 9 9 10 9 8 7 6 7 7 9 8 10 11 11 10 10 10 10 9 8 7 6 5 3 2 2 2 3 4 5 6 8 9 10 11
14 12 11 12 13 12 12 11 11 10 9 9 8 6 5 5 5 7 7 8 10 11 11 10 9 9 9 8 7 6 5 4 3 3 3 4 5 6 7 8 9 10 11
14 12 11 12 12 12 14 14 10 12 9 9 7 5 3 2 4 5 5 6 7 10 11 11 10 9 8 8 8 7 6 5 4 4 4 5 5 7 8 9 10 11 11
14 12 13 13 13 12 15 15 13 8 8 10 9 8 4 1 2 3 4 6 7 7 8 10 11 10 9 8 8 7 6 5 5 5 5 6 6 8 9 10 10 11 12
14 14 14 13 14 14 15 16 15 11 11 9 10 7 6 6 4 2 4 5 6 5 6 8 10 11 11 10 8 7 7 6 6 5 6 6 7 8 8 9 10 11 12
14 14 14 15 15 13 15 17 14 12 14 13 9 4 4 6 6 3 2 4 6 7 7 6 8 9 11 10 9 8 7 6 6 6 6 6 7 7 8 8 9 10 12
12 14 14 15 15 14 15 16 14 15 13 13 10 6 4 4 4 5 5 4 3 4 6 6 6 7 10 10 9 8 8 6 6 5 5 5 6 7 8 8 10 11 12
10 14 15 15 15 14 16 16 15 17 13 12 10 8 7 7 6 4 5 6 5 3 3 4 5 6 9 10 9 9 8 6 5 4 4 4 5 6 7 9 10 11 12
9 13 14 14 14 13 15 14 15 16 16 16 13 9 7 6 6 5 5 4 3 2 2 2 3 6 7 9 8 8 7 6 5 4 3 3 3 5 6 8 10 11 12
10 13 14 14 14 15 15 15 13 13 14 15 14 11 7 7 6 6 5 6 4 1 2 3 2 4 6 8 8 8 6 6 5 4 2 2 3 4 6 7 9 10 11
9 13 14 15 14 15 16 16 13 14 14 13 13 11 9 7 6 6 6 7 7 5 5 4 3 3 6 7 8 7 6 5 5 4 3 3 3 4 5 7 8 9 10
11 13 14 15 15 15 15 15 13 14 15 13 10 12 10 7 7 6 6 5 5 5 5 4 3 2 4 5 7 7 6 5 4 4 3 3 3 4 5 6 7 9 10
12 14 14 15 15 16 16 15 14 16 16 14 12 12 11 9 8 7 7 6 5 4 4 2 2 2 3 4 4 5 5 4 3 3 2 2 3 4 5 6 7 8 9
11 12 14 15 16 16 16 17 17 17 17 16 15 13 12 10 10 9 8 7 6 5 5 5 2 2 3 4 4 3 3 3 2 3 2 2 3 4 4 5 6 7 8
11 11 13 15 16 16 16 16 16 16 16 16 15 14 13 13 12 8 8 8 6 5 4 5 4 2 2 2 3 2 2 1 0 1 1 2 3 3 4 5 5 6 7
10 11 13 14 14 14 15 15 15 15 15 14 13 13 13 14 13 12 9 9 7 6 5 5 4 3 2 2 3 2 1 0 1 1 1 2 1 3 4 5 5 6 7
9 11 11 12 13 12 13 14 15 15 15 14 12 12 12 13 14 13 10 10 10 7 6 5 4 3 3 3 3 3 2 1 1 1 1 1 1 2 3 5 5 6 7
7 9 10 12 13 12 15 17 16 15 15 14 13 12 11 12 14 15 15 14 13 11 9 7 5 5 5 4 3 3 3 2 1 1 0 1 1 1 2 3 4 6 8
5 7 9 11 12 13 17 19 18 15 14 14 14 13 10 10 12 11 12 12 11 11 12 9 8 7 6 6 6 4 3 2 2 1 1 1 1 2 2 3 5 6 8
4 5 7 9 10 12 17 19 18 15 13 14 14 14 13 12 12 13 12 10 7 6 7 6 7 7 6 7 7 6 5 3 2 1 1 0 1 2 3 4 4 6 8
4 4 6 7 10 11 15 19 18 13 12 13 13 13 14 13 17 18 14 12 9 6 7 10 10 9 10 11 10 7 5 3 1 1 0 1 1 2 2 2 4 6 8
4 4 4 6 8 10 13 17 19 12 12 11 10 12 15 16 19 20 15 14 12 9 9 9 9 9 8 9 9 6 6 4 2 2 1 1 0 1 2 2 3 5 6
Wind_Direction
181 178 179 172 168 165 165 163 161 162 157 154 152 150 147 146 148 148 154 155 154 153 151 149 146 142 139 133 130 126 120 113 102 89 74 59 46 34 23 16 9 1 357
181 180 182 179 174 171 170 168 167 165 163 158 157 153 151 150 150 149 153 157 158 159 157 156 154 151 148 145 142 138 133 125 112 91 69 47 29 14 5 360 354 350 347
180 181 182 183 176 172 170 167 166 159 159 157 158 156 152 153 153 153 153 155 159 162 165 165 165 165 161 157 154 151 147 144 127 102 53 19 6 355 348 346 344 343 340
178 180 180 186 177 170 167 168 167 162 160 159 160 161 156 155 155 158 157 159 160 163 169 172 174 174 174 171 168 166 165 170 174 184 331 338 338 336 334 336 335 333 331
180 183 182 182 177 172 171 172 170 164 163 161 159 155 156 160 161 161 162 166 167 167 170 177 179 180 182 182 182 184 187 195 213 241 282 307 316 321 322 324 325 325 324
183 185 184 179 178 175 173 171 167 164 163 160 152 143 148 158 162 168 172 172 174 176 177 178 181 186 189 193 193 197 205 215 232 255 280 296 306 313 316 318 319 320 321
183 185 187 180 180 181 177 169 165 162 161 152 133 119 78 114 167 177 175 174 181 184 184 184 185 187 191 196 200 209 220 231 246 264 283 294 302 309 312 316 318 320 322
185 188 188 185 180 180 178 173 163 162 166 161 151 143 133 141 230 195 186 186 188 183 187 190 188 189 192 195 205 213 224 237 251 264 278 289 299 306 310 315 321 324 326
190 188 191 185 183 181 182 177 173 164 169 171 164 155 157 184 184 216 206 196 188 186 192 189 192 194 194 194 201 211 222 237 252 265 278 287 297 304 311 319 323 326 327
192 189 191 187 183 183 182 182 178 170 169 173 173 167 157 148 153 170 216 207 196 196 196 195 193 197 195 193 199 208 218 234 253 268 278 290 298 304 312 320 325 326 327
195 192 192 188 183 183 182 183 179 173 176 177 172 162 146 135 131 149 178 193 203 212 201 197 192 192 194 195 199 208 215 226 242 260 282 297 306 312 318 323 326 328 329
197 195 193 189 185 183 182 182 181 177 178 177 173 168 163 160 165 154 164 176 192 213 196 193 192 188 191 194 201 203 206 213 225 250 273 294 310 318 322 327 330 331 331
203 197 194 188 186 185 182 180 180 180 181 180 178 177 175 170 158 149 147 155 168 194 183 203 201 189 190 187 190 192 196 202 213 232 253 282 308 318 322 325 328 329 330
206 197 193 188 187 186 183 181 181 182 182 183 182 177 175 175 164 157 153 150 147 172 205 214 195 192 185 182 187 184 190 201 208 212 224 261 293 308 315 321 325 327 330
201 196 191 189 187 187 184 181 184 182 181 186 185 181 179 178 173 164 156 156 155 173 209 208 191 188 178 173 175 174 180 194 199 210 224 251 283 303 312 320 323 326 330
197 192 192 191 187 186 183 183 182 180 181 186 184 182 183 178 174 167 165 164 157 161 189 196 188 162 165 166 171 167 178 190 200 214 229 251 277 301 311 318 322 325 328
199 194 193 190 187 185 184 186 185 181 183 185 186 186 186 176 174 172 169 167 164 152 168 165 138 138 149 155 146 154 169 180 198 213 230 254 284 297 306 315 322 326 329
203 198 192 190 188 186 185 187 187 185 185 187 187 186 185 179 176 174 174 174 172 160 158 164 150 141 145 157 148 145 146 166 190 208 223 265 287 300 311 320 326 329 332
202 194 192 191 190 188 187 188 189 187 188 188 186 186 184 179 180 175 173 174 171 158 143 148 150 133 122 130 129 122 119 101 157 220 244 280 296 309 318 325 327 330 334
195 195 195 191 190 190 189 187 187 187 186 185 185 186 183 184 183 176 176 174 164 154 142 139 137 134 125 120 131 147 149 89 351 14 341 315 322 351 344 336 330 331 333
199 196 193 191 191 192 190 186 186 184 182 181 182 185 184 181 180 177 176 174 167 162 155 149 146 140 150 155 178 165 164 138 347 19 341 326 355 7 347 335 329 332 335
203 197 194 193 194 198 188 183 184 182 181 180 182 181 180 177 175 172 168 167 166 166 169 166 167 172 181 176 153 149 142 141 238 284 2 297 4 318 324 320 331 341 341
207 201 198 196 198 195 185 181 181 180 180 182 181 178 177 177 169 168 159 152 156 159 163 167 170 182 175 175 159 153 161 161 187 204 95 273 327 300 306 318 336 347 350
209 203 198 200 196 193 183 179 176 179 179 181 180 177 174 172 171 161 152 148 145 145 153 153 164 169 160 157 160 157 149 121 94 40 81 209 303 297 314 319 331 352 352
215 211 203 198 192 191 182 178 173 178 179 180 178 174 172 173 167 156 153 150 141 129 118 122 121 124 129 136 134 122 126 120 141 217 79 133 291 315 315 311 327 345 349
222 218 215 201 191 188 181 179 175 179 178 176 171 172 172 170 165 160 161 158 157 151 136 120 109 105 106 121 130 136 152 145 143 196 202 131 110 4 328 311 322 337 344
Height
1471 1474 1477 1480 1483 1487 1490 1494 1497 1501 1504 1507 1510 1512 1515 1517 1519 1521 1523 1525 1526 1528 1529 1529 1530 1531 1531 1531 1531 1531 1531 1531 1530 1530 1529 1528 1527 1526 1525 1523 1522 1520 1518
1466 1469 1472 1475 1479 1483 1487 1490 1493 1497 1501 1505 1508 1510 1513 1515 1518 1520 1522 1523 1525 1527 1528 1529 1529 1530 1530 1530 1531 1531 1531 1530 1530 1529 1528 1528 1526 1525 1524 1522 1521 1519 1517
1461 1464 1467 1470 1474 1478 1483 1487 1491 1494 1498 1502 1505 1508 1511 1513 1516 1518 1520 1522 1524 1525 1527 1528 1529 1529 1530 1530 1530 1530 1530 1529 1529 1528 1527 1526 1525 1524 1523 1521 1519 1517 1515
1455 1458 1462 1465 1469 1473 1477 1482 1486 1490 1494 1498 1502 1506 1509 1512 1514 1517 1519 1521 1522 1524 1525 1527 1527 1528 1529 1529 1529 1529 1529 1528 1528 1527 1526 1525 1524 1522 1521 1519 1517 1515 1513
1449 1452 1456 1460 1464 1467 1472 1477 1482 1485 1490 1495 1499 1503 1506 1509 1512 1514 1517 1519 1521 1522 1524 1525 1526 1527 1527 1528 1528 1528 1528 1527 1527 1526 1525 1524 1522 1521 1519 1517 1515 1513 1511
1442 1446 1450 1454 1458 1462 1466 1472 1477 1482 1487 1492 1496 1501 1505 1508 1510 1512 1515 1517 1519 1521 1522 1523 1524 1525 1526 1526 1526 1526 1526 1526 1525 1524 1523 1522 1520 1519 1517 1515 1513 1511 1509
1436 1440 1444 1448 1452 1456 1460 1466 1472 1478 1483 1488 1493 1498 1503 1506 1509 1511 1513 1514 1516 1518 1520 1521 1522 1523 1524 1524 1524 1524 1524 1524 1523 1522 1521 1520 1518 1517 1515 1513 1511 1509 1506
1430 1434 1438 1442 1446 1451 1456 1460 1466 1472 1477 1482 1486 1492 1498 1504 1505 1508 1510 1512 1514 1515 1517 1519 1520 1521 1521 1522 1522 1522 1522 1521 1521 1520 1519 1517 1516 1514 1512 1510 1508 1506 1503
1423 1428 1432 1436 1440 1445 1449 1453 1459 1464 1470 1476 1481 1484 1490 1494 1500 1504 1506 1508 1510 1512 1514 1516 1517 1518 1519 1519 1520 1520 1519 1519 1518 1517 1516 1515 1513 1511 1509 1507 1505 1502 1500
1417 1421 1425 1430 1434 1439 1444 1448 1454 1459 1464 1469 1475 1479 1483 1485 1491 1497 1501 1504 1506 1508 1510 1512 1514 1515 1516 1516 1517 1517 1517 1516 1515 1514 1513 1512 1510 1508 1506 1504 1502 1499 1496
1410 1414 1419 1423 1427 1433 1438 1444 1449 1454 1459 1463 1467 1473 1478 1481 1485 1488 1493 1498 1502 1504 1506 1508 1510 1512 1513 1513 1514 1514 1514 1513 1512 1511 1510 1508 1507 1505 1503 1501 1498 1496 1493
1403 1408 1413 1417 1421 1426 1432 1437 1443 1448 1453 1459 1463 1468 1472 1475 1480 1484 1487 1491 1496 1499 1502 1504 1506 1508 1509 1510 1510 1511 1510 1510 1509 1508 1506 1505 1503 1501 1499 1497 1494 1492 1489
1397 1401 1406 1410 1415 1421 1426 1432 1438 1442 1448 1454 1459 1464 1469 1473 1477 1481 1484 1488 1492 1496 1498 1500 1502 1504 1505 1506 1507 1507 1507 1506 1505 1504 1503 1501 1499 1497 1495 1493 1490 1488 1485
1390 1395 1400 1404 1410 1416 1422 1427 1433 1437 1443 1449 1455 1460 1465 1470 1474 1478 1481 1484 1488 1492 1494 1496 1498 1500 1501 1502 1503 1503 1503 1502 1501 1500 1499 1497 1495 1493 1491 1489 1486 1484 1481
1385 1390 1395 1399 1405 1411 1417 1422 1428 1433 1439 1445 1450 1456 1461 1466 1471 1475 1478 1481 1484 1487 1490 1492 1494 1495 1497 1498 1499 1499 1499 1499 1498 1496 1495 1493 1492 1490 1487 1485 1483 1480 1477
1380 1385 1389 1394 1400 1406 1412 1418 1423 1428 1434 1440 1446 1452 1457 1462 1467 1471 1474 1478 1481 1483 1485 1488 1490 1491 1493 1494 1495 1495 1495 1495 1494 1493 1491 1489 1488 1486 1484 1481 1479 1476 1473
1376 1379 1384 1389 1394 1400 1407 1414 1419 1424 1429 1436 1442 1447 1452 1457 1462 1466 1470 1473 1477 1480 1481 1484 1486 1488 1489 1490 1491 1491 1491 1491 1490 1489 1487 1486 1484 1482 1480 1478 1475 1472 1469
1371 1375 1379 1384 1389 1395 1401 1408 1413 1419 1425 1431 1436 1442 1447 1453 1457 1462 1466 1469 1473 1476 1478 1480 1482 1483 1485 1486 1487 1487 1487 1487 1486 1485 1484 1482 1480 1478 1476 1474 1471 1468 1466
1365 1369 1374 1379 1385 1390 1396 1402 1408 1414 1420 1426 1431 1436 1442 1447 1452 1456 1461 1465 1468 1472 1474 1476 1478 1479 1481 1482 1483 1483 1484 1483 1482 1481 1480 1478 1477 1475 1472 1470 1467 1465 1462
1360 1365 1369 1375 1380 1386 1391 1398 1404 1410 1416 1421 1426 1432 1437 1442 1447 1451 1456 1460 1464 1467 1470 1472 1474 1475 1477 1478 1479 1479 1479 1479 1479 1478 1476 1475 1473 1471 1469 1466 1464 1461 1459
1357 1361 1365 1370 1376 1381 1387 1393 1399 1405 1410 1416 1421 1427 1432 1438 1443 1447 1452 1456 1459 1462 1465 1467 1469 1471 1472 1473 1474 1475 1475 1475 1475 1474 1473 1472 1470 1468 1466 1463 1461 1458 1456
1353 1357 1361 1365 1371 1377 1382 1388 1394 1399 1405 1411 1416 1422 1428 1433 1438 1443 1448 1451 1455 1458 1460 1463 1465 1466 1468 1469 1470 1471 1471 1471 1471 1471 1469 1468 1467 1465 1462 1460 1458 1455 1453
1349 1353 1357 1361 1366 1371 1377 1382 1389 1395 1400 1406 1411 1417 1422 1428 1433 1438 1443 1447 1450 1454 1457 1459 1461 1463 1464 1465 1466 1467 1468 1468 1467 1467 1466 1464 1463 1461 1459 1457 1455 1452 1450
1346 1349 1353 1356 1361 1366 1371 1378 1384 1390 1396 1401 1406 1412 1417 1423 1428 1433 1438 1442 1445 1449 1452 1455 1458 1459 1461 1462 1463 1464 1465 1465 1464 1463 1462 1461 1459 1458 1456 1454 1452 1449 1446
1344 1346 1349 1352 1356 1361 1367 1373 1380 1385 1391 1396 1402 1407 1413 1418 1423 1428 1433 1437 1441 1444 1448 1451 1454 1456 1458 1459 1460 1461 1461 1461 1460 1460 1459 1458 1456 1454 1453 1451 1449 1446 1443
1341 1343 1345 1348 1352 1356 1362 1368 1374 1380 1385 1391 1397 1403 1408 1413 1419 1423 1428 1432 1436 1439 1443 1446 1449 1452 1454 1455 1456 1457 1458 1458 1457 1457 1456 1455 1453 1452 1449 1448 1446 1444 1441